Location: Gleizolles
(44.4833°N, 6.7667°E)
Time: 15:26:00
(UTC+00:00)

Tiros 1 - Pass Details

Date: 28 June 2024
Orbit: 624 x 656 km, 48.4° (Epoch: 13 July)

Event Time Altitude Azimuth Distance (km) Brightness Sun altitude
Rises 23:46:03 0° 277° (W) 2,902 10.6 -22.3°
Reaches altitude 10° 23:48:25 10° 283° (WNW) 1,996 9.8 -22.2°
Maximum altitude 23:52:54 51° 360° (N) 788 7.9 -22.2°
Drops below altitude 10° 23:57:24 10° 77° (ENE) 2,007 9.9 -22.1°
Sets 23:59:47 0° 82° (E) 2,919 10.7 -22.1°
